TWB280 ROAH-RKSI

Flight info

Callsign TWB280
Flight time N/A
Altitude 35000
Route CHERY DCT ONC Y579 RUGMA Y572 OMKIM/N0462F350 Y572 CJU Y722 OLMEN OLMEN2E
Aircraft B738/M-SDE2E3FGHIRWXY/LB1

Departure

Time 2026-04-28 10:04
Airport Naha International Airport (ROAH)

Arrival

Time N/A
Airport Incheon International Airport (RKSI)
Time Latitude Longitude Altitude Speed Heading
2026-04-28 09:57 26.21152 127.64976 20 ft 0 kts 88°
2026-04-28 09:57 26.21152 127.64975 20 ft 1 kts 88°
2026-04-28 09:57 26.21151 127.64951 20 ft 3 kts 87°
2026-04-28 09:58 26.21150 127.64928 20 ft 3 kts 87°
2026-04-28 09:58 26.21149 127.64915 20 ft 3 kts 97°
2026-04-28 09:58 26.21155 127.64896 24 ft 3 kts 134°
2026-04-28 09:58 26.21171 127.64883 22 ft 3 kts 158°
2026-04-28 09:59 26.21189 127.64877 22 ft 3 kts 171°
2026-04-28 09:59 26.21204 127.64875 22 ft 1 kts 177°
2026-04-28 09:59 26.21220 127.64874 22 ft 3 kts 178°
2026-04-28 09:59 26.21240 127.64874 22 ft 3 kts 178°
2026-04-28 10:00 26.21260 127.64873 20 ft 3 kts 170°
2026-04-28 10:00 26.21272 127.64870 22 ft 0 kts 156°
2026-04-28 10:00 26.21263 127.64872 20 ft 4 kts 171°
2026-04-28 10:01 26.21202 127.64875 20 ft 12 kts 178°
2026-04-28 10:01 26.21114 127.64880 20 ft 13 kts 177°
2026-04-28 10:01 26.21025 127.64884 19 ft 13 kts 177°
2026-04-28 10:01 26.20941 127.64873 19 ft 12 kts 208°
2026-04-28 10:02 26.20912 127.64791 18 ft 12 kts 264°
2026-04-28 10:02 26.20904 127.64699 15 ft 12 kts 266°
2026-04-28 10:02 26.20900 127.64603 16 ft 12 kts 266°
2026-04-28 10:02 26.20861 127.64529 17 ft 12 kts 197°
2026-04-28 10:03 26.20776 127.64530 18 ft 15 kts 177°
2026-04-28 10:03 26.20425 127.64547 18 ft 88 kts 178°
2026-04-28 10:03 26.19582 127.64587 15 ft 152 kts 178°
2026-04-28 10:03 26.18412 127.64641 457 ft 171 kts 176°
2026-04-28 10:04 26.17216 127.64701 1245 ft 180 kts 176°
2026-04-28 10:04 26.15849 127.64777 1634 ft 210 kts 176°
2026-04-28 10:04 26.14344 127.64855 2078 ft 222 kts 176°
2026-04-28 10:04 26.12765 127.64935 2585 ft 232 kts 176°
2026-04-28 10:05 26.11175 127.65014 3305 ft 235 kts 176°
2026-04-28 10:05 26.09539 127.65091 4150 ft 234 kts 177°
2026-04-28 10:05 26.07970 127.65543 4890 ft 238 kts 145°
2026-04-28 10:05 26.06967 127.66987 5607 ft 243 kts 108°
2026-04-28 10:06 26.06863 127.68855 6330 ft 247 kts 79°
2026-04-28 10:06 26.07518 127.70639 6957 ft 255 kts 56°
2026-04-28 10:06 26.08704 127.72217 7209 ft 280 kts 46°
2026-04-28 10:06 26.10127 127.73773 7726 ft 291 kts 43°
2026-04-28 10:07 26.11612 127.75335 8426 ft 295 kts 43°
2026-04-28 10:07 26.13111 127.76913 9187 ft 298 kts 43°
2026-04-28 10:07 26.14622 127.78518 9942 ft 302 kts 43°
2026-04-28 10:07 26.16137 127.80142 10432 ft 314 kts 43°
2026-04-28 10:08 26.17770 127.81903 10591 ft 337 kts 43°
2026-04-28 10:08 26.19503 127.83785 10750 ft 358 kts 43°
2026-04-28 10:08 26.21327 127.85775 10961 ft 375 kts 44°
2026-04-28 10:08 26.23211 127.87839 11423 ft 382 kts 44°
2026-04-28 10:09 26.25112 127.89927 12024 ft 384 kts 44°
2026-04-28 10:09 26.27022 127.92027 12629 ft 387 kts 44°
2026-04-28 10:09 26.28946 127.94145 13204 ft 391 kts 44°
2026-04-28 10:09 26.30888 127.96285 13754 ft 394 kts 44°
2026-04-28 10:10 26.32847 127.98445 14250 ft 398 kts 44°
2026-04-28 10:10 26.34826 128.00626 14739 ft 402 kts 43°
2026-04-28 10:10 26.36819 128.02825 15226 ft 405 kts 43°
2026-04-28 10:10 26.38830 128.04989 15694 ft 408 kts 39°
2026-04-28 10:11 26.41163 128.06792 16154 ft 410 kts 26°
2026-04-28 10:11 26.43791 128.08006 16643 ft 410 kts 14°
2026-04-28 10:11 26.46552 128.08842 17127 ft 412 kts 12°
2026-04-28 10:11 26.49338 128.09654 17590 ft 416 kts 12°
2026-04-28 10:12 26.52149 128.10475 18044 ft 419 kts 12°
2026-04-28 10:12 26.54999 128.11200 18511 ft 419 kts
2026-04-28 10:12 26.57895 128.11390 19009 ft 416 kts 358°
2026-04-28 10:12 26.60794 128.11419 19486 ft 417 kts 357°
2026-04-28 10:13 26.63707 128.11424 19894 ft 420 kts 357°
2026-04-28 10:13 26.66640 128.11431 20249 ft 424 kts 357°
2026-04-28 10:13 26.69599 128.11449 20636 ft 427 kts 357°
2026-04-28 10:13 26.72581 128.11479 21062 ft 428 kts 357°
2026-04-28 10:14 26.75531 128.11519 21470 ft 431 kts 357°
2026-04-28 10:14 26.78541 128.11565 21833 ft 434 kts 357°
2026-04-28 10:14 26.81569 128.11616 22203 ft 437 kts 357°
2026-04-28 10:14 26.84613 128.11668 22568 ft 439 kts 357°
2026-04-28 10:15 26.87677 128.11722 22932 ft 441 kts 357°
2026-04-28 10:15 26.90756 128.11776 23283 ft 444 kts 357°
2026-04-28 10:15 26.93851 128.11830 23619 ft 446 kts 357°
2026-04-28 10:15 26.96965 128.11884 23917 ft 448 kts 357°
2026-04-28 10:16 27.00097 128.11938 24144 ft 452 kts 357°
2026-04-28 10:16 27.03254 128.11992 24408 ft 455 kts 357°
2026-04-28 10:16 27.06423 128.12047 24726 ft 455 kts 357°
2026-04-28 10:16 27.09590 128.12103 25041 ft 456 kts 357°
2026-04-28 10:17 27.12770 128.12158 25338 ft 458 kts 357°
2026-04-28 10:17 27.15961 128.12214 25609 ft 460 kts 357°
2026-04-28 10:17 27.19170 128.12269 25884 ft 461 kts 357°
2026-04-28 10:17 27.22384 128.12325 26153 ft 463 kts 356°
2026-04-28 10:18 27.25617 128.12381 26380 ft 466 kts 356°
2026-04-28 10:18 27.28866 128.12437 26643 ft 467 kts 356°
2026-04-28 10:18 27.32129 128.12494 26924 ft 468 kts 356°
2026-04-28 10:18 27.35391 128.12551 27191 ft 470 kts 356°
2026-04-28 10:19 27.38664 128.12608 27441 ft 471 kts 356°
2026-04-28 10:19 27.41949 128.12665 27681 ft 473 kts 356°
2026-04-28 10:19 27.45244 128.12722 27925 ft 475 kts 356°
2026-04-28 10:19 27.48558 128.12779 28113 ft 477 kts 356°
2026-04-28 10:20 27.51886 128.12837 28328 ft 479 kts 356°
2026-04-28 10:20 27.55221 128.12896 28566 ft 480 kts 356°
2026-04-28 10:20 27.58566 128.12954 28802 ft 481 kts 356°
2026-04-28 10:20 27.61917 128.13013 29014 ft 482 kts 356°
2026-04-28 10:21 27.65280 128.13072 29230 ft 484 kts 356°
2026-04-28 10:21 27.68640 128.13131 29550 ft 483 kts 356°
2026-04-28 10:21 27.71952 128.13190 29893 ft 481 kts 356°
2026-04-28 10:21 27.75338 128.13251 30236 ft 479 kts 356°
2026-04-28 10:22 27.78622 128.13309 30507 ft 478 kts 356°
2026-04-28 10:22 27.81955 128.13368 30781 ft 477 kts 356°